Probability
2 2 1 0 0 0 0 0 0 0 0 0 0 0 0 0 0 0 0 0 1 1 0 0 1 2 3 3 3 3 3 3 3 3 3 1 0 0 0 0 0 1 2 3 3 3 2 2 2
2 1 0 0 0 0 0 0 0 0 0 0 0 0 0 0 0 0 0 0 1 2 1 0 1 2 3 3 3 3 3 3 3 3 3 2 1 1 0 0 0 1 2 3 3 2 1 1 1
2 1 0 0 0 0 0 0 0 0 0 0 0 0 0 0 0 0 0 0 1 2 2 1 1 2 2 3 3 3 3 3 3 3 3 3 3 2 1 0 0 0 1 1 2 1 0 0 0
1 1 0 0 0 0 0 0 0 0 0 0 0 0 1 2 1 1 1 1 2 3 4 4 5 4 3 3 3 3 3 3 3 3 3 3 3 3 2 1 0 0 0 0 0 0 0 0 0
0 0 0 0 0 0 0 0 0 0 0 1 1 1 2 3 3 3 2 3 5 7 7 8 9 8 5 3 3 2 2 2 2 1 1 2 3 3 3 2 1 1 1 1 0 0 0 0 0
0 0 0 0 0 0 0 0 0 1 1 2 3 3 3 3 3 4 4 4 6 9 9 10 11 9 6 4 2 2 1 1 1 0 0 1 1 2 3 3 3 2 2 2 1 1 1 0 0
0 0 0 0 0 0 0 1 1 2 3 4 4 4 4 4 4 5 4 4 5 6 8 9 8 7 7 5 2 1 2 2 1 1 0 0 0 1 1 2 3 3 3 3 3 2 2 1 1
0 0 0 0 0 0 0 1 3 4 4 4 4 5 6 6 7 7 6 4 4 4 5 6 5 4 4 3 1 0 1 2 2 2 1 1 1 0 0 1 2 2 2 3 3 3 3 3 2
0 0 0 0 0 0 1 3 5 5 4 4 4 7 12 13 14 13 10 7 5 4 3 3 3 2 1 1 0 0 0 1 2 2 2 2 2 1 1 1 2 2 2 3 3 3 3 3 2
0 0 0 0 0 0 2 5 7 6 5 4 6 13 22 24 20 16 12 8 6 5 4 2 3 3 2 0 1 1 1 1 1 1 2 2 1 2 2 3 3 3 2 2 2 2 2 1 1
0 0 0 0 0 1 4 6 7 5 3 5 12 24 32 29 20 15 10 6 5 5 4 2 2 4 3 2 2 2 2 2 2 1 1 1 0 1 2 2 2 2 2 1 1 1 1 0 0
0 0 0 0 0 1 4 6 6 3 2 7 18 31 34 27 18 12 7 4 2 3 4 2 3 5 5 3 3 3 3 3 3 3 2 1 0 0 1 1 1 1 1 0 0 0 0 0 0
0 0 0 0 0 1 3 6 4 2 4 11 21 30 29 23 17 12 7 4 3 2 2 2 4 5 5 4 3 3 3 3 3 3 3 2 1 0 0 0 0 0 0 0 0 0 0 0 0
0 0 0 0 0 1 3 4 2 2 6 12 18 22 22 19 17 15 12 9 6 4 2 3 4 4 4 3 3 3 3 3 3 3 3 3 2 1 0 0 0 0 0 0 0 0 0 0 0
0 0 0 0 0 1 2 2 2 3 6 10 12 15 16 16 16 17 16 14 11 7 4 4 5 4 4 3 3 3 3 3 3 3 3 3 2 1 0 1 0 0 0 0 0 0 0 0 0
0 0 0 0 0 1 1 2 4 4 5 7 10 13 14 13 14 16 18 18 14 9 5 5 6 6 5 3 3 3 3 3 3 3 3 3 2 0 0 0 0 0 0 0 0 0 0 0 0
0 0 0 0 0 0 1 3 5 5 5 7 11 14 13 11 11 14 18 19 16 12 7 6 6 7 6 4 2 2 1 1 2 3 3 3 2 1 0 0 0 0 0 0 0 0 0 0 0
0 0 0 0 0 0 1 3 4 4 6 10 14 17 15 11 9 12 16 18 17 14 10 8 7 7 7 4 2 1 0 0 1 2 2 2 2 1 0 0 0 0 0 0 0 0 0 0 0
0 0 0 0 0 0 1 2 2 2 6 12 18 21 20 16 13 13 15 17 19 17 14 11 8 7 7 6 4 2 1 0 1 2 2 1 1 1 0 0 0 0 0 0 0 0 0 0 0
0 0 0 0 0 0 1 1 1 1 4 11 20 25 25 22 19 17 17 18 21 21 18 15 10 8 8 8 6 3 1 1 1 2 3 2 1 0 0 0 0 0 0 0 0 0 0 0 0
0 0 0 0 0 0 0 0 0 0 4 11 20 27 29 27 24 22 21 21 22 23 22 18 12 10 10 10 9 6 4 3 3 3 3 2 1 0 0 0 0 0 0 0 0 0 0 0 0
0 0 0 0 0 0 0 0 0 1 5 12 20 26 29 29 29 27 25 24 21 21 21 18 13 11 10 10 10 9 7 5 3 2 3 2 1 1 0 0 0 0 0 0 0 0 0 0 0
0 0 0 0 0 0 0 0 0 1 4 11 18 23 26 30 33 31 27 22 19 20 20 17 14 12 10 9 8 8 8 5 2 1 1 1 1 0 0 0 0 0 0 0 0 0 0 0 0
0 0 0 0 0 0 0 0 0 1 4 9 15 22 27 32 33 30 25 20 18 21 22 18 15 14 11 9 7 6 6 4 2 1 0 0 0 0 0 0 0 0 0 0 0 0 0 0 0
0 0 0 0 0 0 0 0 0 2 5 9 15 22 30 32 29 25 20 16 16 19 20 17 15 13 11 8 6 5 4 3 3 2 1 0 0 0 0 0 0 0 0 0 0 0 0 0 0
0 0 0 0 0 0 0 1 1 3 6 10 15 22 27 28 24 20 15 12 12 15 15 13 11 9 8 7 6 4 4 3 3 2 1 0 0 0 0 0 0 0 0 0 0 0 0 0 0
0 0 0 0 0 0 0 1 2 3 5 10 14 18 21 20 18 15 13 11 12 14 14 11 8 7 6 6 6 5 4 3 3 2 1 0 0 0 0 0 0 0 0 0 0 0 0 0 0
0 0 0 0 0 0 0 1 1 1 4 8 11 13 14 13 12 12 12 12 13 14 14 11 8 6 6 5 5 5 4 4 4 3 2 2 2 1 1 0 0 0 0 0 0 0 0 0 0
0 0 0 0 0 0 0 0 0 0 3 7 9 10 10 10 11 12 12 12 13 16 15 12 8 5 4 4 4 5 5 5 5 5 5 5 5 3 2 1 1 1 0 0 0 0 0 0 0
0 0 0 0 0 0 0 0 0 0 2 6 9 9 10 11 14 15 14 13 14 17 15 12 8 5 3 3 4 6 6 5 5 6 6 6 6 5 3 2 2 2 1 0 0 0 0 0 0
Wind_Speed
3 4 3 2 6 7 4 4 2 3 3 3 6 6 7 4 2 3 2 7 8 7 5 9 12 12 13 13 13 13 13 13 13 13 13 12 12 13 13 13 13 13 14 14 15 15 15 15 15
2 4 2 5 7 4 3 3 3 3 4 5 6 6 6 4 4 7 4 6 9 7 6 8 12 12 12 12 12 12 13 13 13 12 12 12 12 12 12 13 13 13 14 14 15 15 15 14 15
3 2 4 6 4 3 1 0 3 4 4 3 5 5 5 4 5 5 5 9 8 6 5 8 13 12 12 12 12 12 12 12 12 12 11 11 11 11 12 12 13 13 14 14 14 14 14 14 14
2 4 6 6 3 1 2 2 4 5 4 5 5 6 4 4 5 6 10 11 9 6 5 7 13 12 12 11 11 11 11 11 11 11 11 11 11 11 11 12 12 13 13 13 13 13 13 13 13
3 5 7 5 3 2 1 2 2 3 3 4 5 5 4 3 9 12 11 11 9 6 5 6 12 12 11 11 11 11 11 11 11 11 10 10 11 11 11 11 11 12 12 12 12 12 12 12 12
5 6 6 2 2 2 1 1 3 4 4 4 5 5 2 4 10 11 10 9 7 7 5 6 11 12 11 11 10 10 10 10 10 10 10 10 10 11 11 11 11 11 11 11 12 11 11 11 11
5 5 3 2 0 1 2 2 3 4 4 4 4 5 2 4 7 10 8 7 6 5 5 4 5 7 10 10 10 10 10 10 10 10 10 10 10 10 10 10 10 10 10 10 10 11 11 11 11
5 6 3 1 2 2 2 3 2 4 4 5 5 7 6 6 9 10 8 7 6 5 4 4 4 4 4 5 9 10 10 9 9 9 10 9 9 9 9 8 9 10 9 9 9 10 10 9 9
4 6 1 3 4 3 3 3 2 3 5 3 3 5 7 14 14 11 9 6 6 6 3 3 4 4 3 3 6 7 8 8 8 7 9 7 4 4 5 6 8 9 8 8 8 9 9 9 8
5 3 4 4 5 4 5 5 5 4 3 2 4 7 15 16 14 13 12 11 10 8 6 4 4 4 3 3 3 2 3 3 3 3 4 4 3 2 3 4 7 8 8 8 8 8 8 6 4
3 3 3 3 3 5 5 4 4 7 4 7 9 14 18 17 13 12 12 10 9 8 7 6 5 4 3 2 3 2 2 2 3 3 4 3 3 2 3 2 3 3 5 4 5 5 3 3 3
1 2 2 2 2 4 6 5 4 5 6 6 12 17 19 18 15 14 12 10 8 7 7 6 5 4 4 3 3 3 2 2 2 2 3 2 2 2 2 2 2 2 2 3 3 2 2 3 3
1 3 2 1 3 4 5 4 3 3 1 9 14 15 17 16 13 10 9 8 8 8 8 7 6 5 4 3 3 3 3 3 3 2 3 3 2 2 2 1 1 1 1 2 2 2 2 2 2
2 3 3 1 3 3 5 2 2 3 6 11 14 14 15 15 13 10 9 9 9 9 8 7 7 6 5 3 3 3 3 3 3 3 3 4 3 2 2 1 1 1 1 1 1 2 1 1 1
2 4 5 3 2 2 6 1 3 4 9 11 12 12 12 11 11 12 12 11 10 9 8 8 8 6 5 4 4 3 3 3 3 3 3 4 3 3 2 2 1 1 1 1 1 1 1 1 1
4 5 4 4 1 2 6 4 3 6 11 10 10 10 10 9 10 10 9 8 8 8 8 8 8 8 6 5 4 3 3 3 3 3 3 4 4 4 3 2 2 2 1 1 1 1 1 1 1
6 3 3 5 1 2 4 4 2 6 10 9 9 8 8 7 8 8 9 9 9 10 9 8 7 8 7 5 4 3 3 3 3 3 3 4 5 5 4 3 2 2 2 1 2 1 1 1 1
2 2 3 4 3 2 2 2 1 5 8 8 8 7 7 9 10 8 8 9 9 8 8 8 7 6 6 4 2 2 2 2 2 3 3 4 4 5 4 3 3 3 2 2 1 1 1 1 1
2 1 3 4 2 2 1 1 1 4 5 6 6 7 8 9 6 6 7 8 8 8 8 8 8 7 6 4 4 3 3 2 2 3 4 5 4 5 4 3 3 3 3 3 3 2 2 1 1
2 1 2 3 3 3 2 2 0 3 5 6 7 8 9 7 5 6 6 7 8 8 9 8 8 8 7 5 4 3 2 2 2 2 3 4 4 4 5 5 4 4 3 3 3 3 2 1 2
1 3 2 1 3 5 4 4 2 1 1 3 4 5 6 8 8 7 7 8 7 8 9 9 8 8 7 6 3 2 2 1 1 1 2 3 4 4 4 5 5 4 4 4 4 4 4 2 2
2 3 3 2 4 2 2 1 5 3 3 3 5 6 6 6 6 6 7 7 8 8 7 7 7 6 6 6 5 5 4 3 3 2 2 2 3 4 4 4 5 4 4 4 4 3 3 3 2
3 2 3 3 4 3 3 2 7 2 3 5 4 5 5 6 8 8 7 7 7 6 6 5 5 6 5 6 6 6 4 3 2 2 2 2 2 3 4 4 4 4 4 4 4 3 4 3 3
4 6 6 6 6 2 1 1 6 4 6 4 3 4 5 6 6 6 5 5 4 5 5 5 6 5 6 6 6 6 6 4 3 3 3 2 2 2 3 3 3 4 4 4 4 4 5 4 4
5 7 5 6 5 4 2 1 9 7 5 5 5 5 5 6 6 5 6 6 5 6 6 6 7 6 6 6 6 6 6 6 5 4 4 3 2 2 3 3 3 3 4 4 4 4 5 5 5
4 9 8 5 4 4 3 4 8 4 3 2 4 5 6 6 6 6 5 6 6 6 7 7 7 6 6 6 5 4 4 4 3 4 3 3 3 2 2 3 3 3 3 4 3 3 4 3 4
6 3 7 8 3 1 5 6 8 1 1 1 4 5 6 6 6 6 5 6 6 6 7 7 7 6 6 5 5 4 4 4 4 3 3 2 2 2 2 2 2 2 3 3 3 2 3 2 3
6 9 6 7 6 2 5 4 5 5 4 3 5 6 6 5 5 5 5 5 5 5 5 6 7 6 6 5 5 4 3 3 3 3 3 3 2 2 2 2 2 2 2 2 2 2 2 2 2
5 5 6 5 6 7 2 8 7 8 7 8 7 6 6 6 6 5 5 4 4 4 5 5 6 5 5 5 4 4 3 2 2 2 3 3 2 2 3 3 2 2 2 1 1 1 2 2 2
4 7 9 7 4 5 5 9 5 5 6 6 6 5 5 5 4 4 4 4 4 5 5 5 5 5 5 5 4 4 3 3 2 2 2 2 2 2 2 2 2 2 1 1 2 2 1 1 1
Wind_Direction
181 149 146 94 55 48 36 2 47 72 61 58 87 91 98 85 126 144 121 132 131 133 134 134 130 126 120 117 114 112 110 109 109 109 109 110 110 109 108 107 105 105 105 105 105 106 106 108 109
156 157 101 60 73 57 5 352 64 80 134 126 87 80 78 71 70 105 125 135 131 132 128 135 134 130 126 122 118 115 113 112 110 110 110 112 112 110 110 108 106 105 105 107 107 107 107 108 108
167 131 78 65 74 123 145 238 113 101 112 95 83 73 84 113 125 132 144 135 124 125 126 142 137 135 130 126 123 119 118 116 114 112 112 112 112 112 111 109 108 108 107 108 108 108 110 111 110
111 54 54 64 53 263 184 171 136 117 74 60 90 77 74 111 137 134 134 133 126 124 129 146 141 137 134 130 126 123 121 119 116 113 111 111 113 113 112 111 110 110 110 110 109 110 111 113 112
62 72 57 44 5 351 84 148 132 100 84 76 90 88 60 55 108 125 133 136 135 131 134 146 144 141 137 133 130 128 126 122 119 117 113 113 113 112 112 112 111 111 111 110 109 109 109 111 112
57 63 73 52 347 3 76 131 100 89 91 92 91 94 67 113 124 135 135 135 137 137 135 143 147 145 142 138 136 133 130 127 124 121 117 115 113 111 112 114 113 113 113 111 109 108 109 110 110
93 84 112 146 88 317 184 133 123 118 114 126 115 100 97 137 135 131 124 124 128 130 127 128 138 144 146 144 142 137 132 130 128 126 123 119 116 114 114 114 117 116 115 114 113 112 110 108 109
114 97 87 132 168 233 174 125 126 125 123 124 120 137 170 167 135 121 115 118 127 126 125 123 119 117 124 139 145 141 138 136 134 131 128 124 120 117 115 115 120 119 119 118 117 115 111 106 107
86 77 137 203 190 211 162 135 134 106 118 136 142 158 155 138 134 129 130 136 149 155 144 133 126 119 124 138 149 142 141 139 134 132 128 111 84 87 106 122 123 121 122 121 117 111 108 104 102
78 113 219 210 194 176 162 155 153 122 136 131 87 104 129 141 148 152 160 166 172 174 172 157 145 141 141 148 119 104 107 107 97 88 96 90 87 86 96 115 123 120 118 116 106 101 99 90 86
101 184 232 236 196 158 150 147 141 135 198 205 170 151 149 154 162 168 173 175 178 174 175 169 161 155 148 131 126 107 102 101 99 102 102 98 87 77 69 60 77 81 91 81 81 77 74 86 96
108 261 218 226 173 149 151 145 145 186 225 184 157 155 158 165 174 178 178 178 171 170 180 172 166 162 159 147 138 132 128 125 124 124 126 115 103 92 83 72 66 69 76 84 78 78 73 83 100
36 291 288 183 134 137 127 142 157 232 146 120 136 152 165 172 178 180 177 173 170 177 183 178 172 172 170 159 162 154 152 152 150 145 151 146 138 130 112 92 79 81 90 100 94 86 81 79 87
287 295 313 69 121 138 134 141 120 224 134 131 145 161 171 177 176 173 173 177 179 182 184 178 175 177 175 172 175 167 166 162 158 166 174 166 156 153 144 135 118 109 114 118 113 108 106 97 112
351 4 5 23 81 122 112 58 223 180 141 145 158 167 175 180 180 185 185 184 182 182 179 177 177 176 183 187 187 178 173 170 176 179 181 175 168 168 164 165 184 182 146 124 107 96 95 106 121
39 41 0 314 60 118 126 224 244 153 150 158 167 173 179 187 192 190 182 181 177 173 176 183 185 178 188 192 190 177 177 184 189 180 181 183 181 177 171 183 206 186 153 140 137 122 103 107 133
28 26 323 314 336 121 146 218 231 154 158 168 175 179 181 188 199 193 181 179 177 177 177 180 183 180 186 187 184 182 178 190 194 182 186 191 189 183 178 190 201 175 159 154 169 143 150 166 182
316 328 319 304 303 95 148 233 195 166 169 174 175 178 184 198 207 189 178 176 173 175 175 178 178 175 170 166 160 164 174 192 194 195 197 194 191 184 179 186 192 173 165 169 162 154 150 169 182
187 233 285 277 288 113 169 228 210 175 173 176 179 185 195 210 203 172 170 168 166 171 174 177 174 173 166 164 173 175 192 193 199 205 201 197 192 184 181 189 185 177 182 189 175 161 159 164 127
180 257 291 315 8 86 84 3 277 191 199 189 190 197 200 203 186 176 165 168 174 177 180 179 181 179 181 182 176 169 164 176 194 203 199 197 193 190 191 186 189 186 182 186 183 170 156 181 162
228 205 219 227 23 38 64 357 328 276 216 197 195 205 202 197 190 184 176 178 174 182 187 188 186 183 184 173 148 124 105 106 146 192 201 200 195 199 195 190 190 189 184 192 195 185 178 192 202
261 243 186 138 89 355 55 285 287 271 269 223 209 202 202 190 176 179 180 179 182 191 188 186 179 177 179 170 170 174 180 191 197 191 192 192 195 199 199 190 190 192 189 194 200 191 189 183 204
202 64 87 90 108 53 24 118 285 318 261 250 231 204 191 180 176 180 181 185 185 177 177 177 171 175 175 177 179 179 188 197 176 164 180 196 201 205 201 194 192 195 195 199 201 194 196 198 201
131 71 54 49 68 53 313 151 276 252 235 243 218 188 175 167 168 166 161 158 161 155 163 163 172 182 177 180 181 182 186 182 172 185 195 201 203 210 208 198 197 200 199 202 205 204 204 209 212
90 83 33 10 19 262 287 212 252 257 247 220 200 182 165 160 158 158 161 159 173 167 169 170 173 183 182 182 187 190 191 186 189 193 199 199 203 217 218 203 199 205 207 208 207 209 213 210 214
153 134 152 181 209 278 330 251 260 276 275 220 182 163 155 163 164 166 171 173 180 179 175 171 178 180 180 182 187 184 188 190 195 195 193 199 207 216 213 204 205 211 212 214 208 214 222 217 222
131 144 151 124 143 335 296 293 304 321 12 144 160 157 162 169 168 165 167 176 178 179 171 173 177 176 180 182 176 174 183 187 191 186 181 191 200 202 194 191 201 213 210 208 197 213 227 221 229
134 140 106 114 136 222 297 287 256 252 228 202 191 182 177 168 166 164 169 179 179 177 168 164 171 176 176 173 176 176 178 179 178 173 180 189 196 191 180 192 203 209 206 197 189 209 221 212 235
111 99 102 106 142 149 218 269 230 222 211 199 201 193 183 179 174 170 169 168 163 149 152 162 163 159 163 166 168 163 163 162 152 166 186 190 188 185 186 195 197 202 195 179 178 207 203 210 239
163 162 146 146 188 163 166 262 267 234 214 194 196 190 181 177 170 163 156 145 143 149 154 160 158 159 160 160 158 160 154 151 157 174 186 178 178 178 183 179 176 185 181 169 175 203 211 213 233